Tracking 19847 objects as of 15-Sep-2019
HD Live streaming from Space Station
objects crossing your sky now

SL-14 R/B

Track SL-14 R/B now!
10-day predictions


NORAD ID: 21034
Int'l Code: 1990-114G
Perigee: 1,417.3 km
Apogee: 1,480.0 km
Inclination: 82.6 °
Period: 114.7 minutes
Semi major axis: 7819 km
RCS: 5.0163 m2 (large)
Launch date: December 22, 1990
Source: Commonwealth of Independent States (former USSR) (CIS)
Launch site: PLESETSK MISSILE AND SPACE COMPLEX (PKMTR)

Note: This is a ROCKET BODY
aabbcc
Your satellite tracking list
Your tracking list is empty




NASA's NSSDC Master Catalog

Two Line Element Set (TLE):
1 21034U 90114G   19257.49439583 +.00000032 +00000-0 +12777-3 0  9996
2 21034 082.5625 088.0344 0040071 136.4439 302.4965 12.55514404316504
Source of the keplerian elements: AFSPC